Voltar ao catálogo

THORAD AGENA D DEB

AtivoSSO
NORAD 4864·DEBRIS·🇺🇸 United States

Lançado Apr 8, 1970 de Vandenberg Space Force Base

Loading…

Próximas Passagens

TLE

Source: Space-Track
1 04864U 70025EU  26229.26597824  .00000034  00000-0  12010-3 0  9994
2 04864  99.5299 341.7258 0045692 335.1784  53.9458 13.49539761769198

Acompanhe THORAD AGENA D DEB em tempo real com AllMySat

Download on the App Store